Anniston, AL

11:26 PM CST on January 21, 2018 (GMT -0600)
Anniston Metro

Weather History for KANB - October, 2013

Change the Weather History Date:

Thursday, October 31, 2013

  Actual Average Record
Temperature  
Mean Temperature 68 °F 58 °F  
Max Temperature 76 °F 71 °F 88 °F (2016)
Min Temperature 60 °F 46 °F 27 °F (1954)
Degree Days  
Heating Degree Days 0    
Month to date heating degree days 102  
Since 1 July heating degree days 102  
Cooling Degree Days 2    
Growing Degree Days 18 (Base 50)    
Moisture  
Dew Point 61 °F    
Average Humidity 77    
Maximum Humidity 90    
Minimum Humidity 64    
Precipitation  
Precipitation 0.09 in 0.11 in 1.21 in (2015)
Month to date precipitation 2.88 3.12  
Year to date precipitation 63.37 40.97  
Sea Level Pressure  
Sea Level Pressure 29.96 in    
Wind  
Wind Speed 8 mph (South)    
Max Wind Speed 17 mph    
Max Gust Speed 30 mph    
Visibility 10 miles    
Events Rain    
T = Trace of Precipitation, MM = Missing Value Source: NWS Daily Summary

Daily Weather History Graph

Daily Weather History Graph

Search for Another Location

Airport or City:

Trip Planner

Search our weather history database for the weather conditions in past years. The results will help you decide how hot, cold, wet, or windy it might be!

Date:

Astronomy

Oct. 31, 2013 Rise Set
Actual Time 7:01 AM CDT 5:51 PM CDT
Civil Twilight 6:35 AM CDT 6:17 PM CDT
Nautical Twilight 6:06 AM CDT 6:46 PM CDT
Astronomical Twilight 5:37 AM CDT 7:16 PM CDT
Moon 3:58 AM CDT (10/31) 4:02 PM CDT (10/31)
Length of Visible Light 11h 41m
Length of Day
10h 50m
Waning Crescent, 10% of the Moon is Illuminated
Oct 31
Waning Crescent
Nov 3
New
Nov 9
First Quarter
Nov 17
Full
Nov 25
Last Quarter

Hourly Weather History & Observations

Time (CDT) Temp. Dew Point Humidity Pressure Visibility Wind Dir Wind Speed Gust Speed Precip Events Conditions
12:53 AM 60.1 °F 57.0 °F 90% 30.12 in 9.0 mi NE 3.5 mph - N/A   Clear
1:53 AM 61.0 °F 55.9 °F 83% 30.10 in 10.0 mi NE 4.6 mph - N/A   Clear
2:53 AM 61.0 °F 55.0 °F 81% 30.08 in 10.0 mi NE 4.6 mph - N/A   Clear
3:53 AM 61.0 °F 55.0 °F 81% 30.08 in 10.0 mi NNE 4.6 mph - N/A   Clear
4:53 AM 62.1 °F 54.0 °F 75% 30.08 in 10.0 mi NNE 4.6 mph - N/A   Clear
5:53 AM 64.0 °F 54.0 °F 70% 30.07 in 10.0 mi Calm Calm - N/A   Overcast
6:53 AM 66.9 °F 59.0 °F 76% 30.05 in 10.0 mi South 5.8 mph - N/A   Clear
7:53 AM 68.0 °F 60.1 °F 76% 30.05 in 10.0 mi South 4.6 mph - N/A   Clear
8:53 AM 69.1 °F 61.0 °F 75% 30.05 in 10.0 mi Variable 5.8 mph - N/A   Clear
9:53 AM 69.1 °F 61.0 °F 75% 30.04 in 10.0 mi South 10.4 mph 17.3 mph N/A   Clear
10:53 AM 71.1 °F 61.0 °F 70% 30.04 in 10.0 mi South 10.4 mph 18.4 mph N/A   Clear
11:53 AM 75.0 °F 62.1 °F 64% 30.01 in 10.0 mi SSW 10.4 mph 17.3 mph N/A   Scattered Clouds
12:53 PM 75.0 °F 62.1 °F 64% 29.97 in 10.0 mi South 12.7 mph 24.2 mph N/A   Mostly Cloudy
1:53 PM 73.9 °F 62.1 °F 66% 29.95 in 10.0 mi SSW 8.1 mph 18.4 mph N/A   Overcast
2:53 PM 75.0 °F 63.0 °F 66% 29.90 in 10.0 mi South 9.2 mph - N/A   Overcast
3:53 PM 75.0 °F 63.0 °F 66% 29.89 in 10.0 mi South 4.6 mph - N/A   Overcast
4:53 PM 73.9 °F 64.0 °F 71% 29.88 in 10.0 mi South 6.9 mph - N/A   Overcast
5:53 PM 73.0 °F 64.0 °F 73% 29.87 in 10.0 mi Variable 3.5 mph - 0.00 in   Overcast
6:53 PM 73.0 °F 64.0 °F 73% 29.87 in 10.0 mi SSW 8.1 mph 19.6 mph N/A   Overcast
7:53 PM 72.0 °F 64.0 °F 76% 29.86 in 10.0 mi South 10.4 mph 23.0 mph N/A   Scattered Clouds
8:53 PM 72.0 °F 66.0 °F 81% 29.86 in 10.0 mi SSW 10.4 mph 19.6 mph 0.00 in Rain Light Rain
9:53 PM 71.1 °F 66.9 °F 87% 29.85 in 8.0 mi South 10.4 mph 17.3 mph 0.03 in Rain Light Rain
10:53 PM 70.0 °F 66.0 °F 87% 29.81 in 10.0 mi SW 9.2 mph 18.4 mph 0.06 in   Mostly Cloudy
11:03 PM 69.8 °F 66.2 °F 88% 29.83 in 10.0 mi SSW 10.4 mph - N/A   Mostly Cloudy
11:27 PM 69.8 °F 66.2 °F 88% 29.82 in 10.0 mi SSW 9.2 mph - N/A   Overcast
11:53 PM 70.0 °F 64.9 °F 84% 29.80 in 10.0 mi SSW 9.2 mph - N/A   Overcast